Regional Weather Roundup
Issued by NWS Charleston, WV

Home | Current Version | Previous Version | Text Only | Print | Product List | Glossary Off
Versions: 1 2 3 4 5 6 7 8 9 10 11 12 13 14 15 16 17 18 19 20 21 22 23 24 25 26 27 28

000
ASUS41 KRLX 192310
RWRRLX
West Virginia Regional Weather Roundup
National Weather Service Charleston WV
700 PM EDT SAT APR 19 2014

Note: "fair" indicates few or no clouds below 12,000 feet with no
significant weather and/or obstructions to visibility.

WVZ003-200000-
Northern Panhandle of West Virginia

CITY           SKY/WX    TMP DP  RH WIND       PRES   REMARKS
WHEELING       PTSUNNY   59  22  24 E8        30.27S
$$

WVZ009-200000-
Northwest West Virginia

CITY           SKY/WX    TMP DP  RH WIND       PRES   REMARKS
PARKERSBURG    CLOUDY    64  28  25 NE10      30.26S
$$

WVZ006-200000-
Western West Virginia

CITY           SKY/WX    TMP DP  RH WIND       PRES   REMARKS
HUNTINGTON     CLOUDY    68  32  26 NE10      30.19R
$$

WVZ015-200000-
West Central West Virginia

CITY           SKY/WX    TMP DP  RH WIND       PRES   REMARKS
CHARLESTON     CLOUDY    67  33  28 N8        30.19R
$$

WVZ031-200000-
North Central West Virginia

CITY           SKY/WX    TMP DP  RH WIND       PRES   REMARKS
CLARKSBURG     CLOUDY    60  26  27 N12       30.24S
MORGANTOWN     CLOUDY    61  25  25 N10       30.27R
$$

WVZ035-042-045-200000-
South Central West Virginia

CITY           SKY/WX    TMP DP  RH WIND       PRES   REMARKS
BECKLEY        CLOUDY    63  33  32 N10       30.20R
BLUEFIELD      CLOUDY    64  33  31 E3        30.20S
LEWISBURG      CLOUDY    59  35  39 SE3       30.21R
$$

WVZ047-200000-
Northern Mountains of West Virginia

CITY           SKY/WX    TMP DP  RH WIND       PRES   REMARKS
ELKINS         CLOUDY    61  30  31 N7        30.23S
$$

WVZ052-200000-
Eastern Panhandle of West Virginia

CITY           SKY/WX    TMP DP  RH WIND       PRES   REMARKS
MARTINSBURG    CLOUDY    65  24  21 NE6       30.26R
PETERSBURG     CLOUDY    69  39  33 E6        30.24S
$$



USA.gov is the U.S. government's official web portal to all federal, state and local government web resources and services.